This is the latest recevied weather packets stored in our database for station/object VK5FR. If no packets are shown the sender has not sent any weather packets the latest 10 day(s).
| Time | Temp. | Humidity | Pressure | Rain* | Wind** | Luminosity | Snow |
|---|---|---|---|---|---|---|---|
| 1778139683 | 13.89° C | 65% | 1028 hPa | 0 mm | - | - | - |
| 1778139379 | 13.89° C | 64% | 1028.2 hPa | 0 mm | - | - | - |
| 1778139075 | 14.44° C | 65% | 1028 hPa | 0 mm | - | - | - |
| 1778138774 | 14.44° C | 63% | 1028.2 hPa | 0 mm | - | - | - |
| 1778138470 | 14.44° C | 63% | 1028.2 hPa | 0 mm | - | - | - |
| 1778138168 | 14.44° C | 62% | 1027.9 hPa | 0 mm | - | - | - |
| 1778137864 | 14.44° C | 61% | 1028 hPa | 0 mm | - | - | - |
| 1778137561 | 15° C | 60% | 1027.9 hPa | 0 mm | - | - | - |
| 1778137258 | 15° C | 59% | 1028 hPa | 0 mm | - | - | - |
| 1778136954 | 15° C | 58% | 1027.9 hPa | 0 mm | - | - | - |
| 1778136652 | 15° C | 57% | 1028.1 hPa | 0 mm | - | - | - |
| 1778136349 | 15° C | 58% | 1027.8 hPa | 0 mm | - | - | - |
| 1778136048 | 15° C | 60% | 1027.9 hPa | 0 mm | - | - | - |
| 1778135745 | 14.44° C | 62% | 1027.9 hPa | 0 mm | - | - | - |
| 1778135442 | 14.44° C | 63% | 1027.9 hPa | 0 mm | - | - | - |
| 1778135138 | 14.44° C | 62% | 1027.9 hPa | 0 mm | - | - | - |
| 1778134836 | 14.44° C | 62% | 1027.8 hPa | 0 mm | - | - | - |
| 1778134534 | 14.44° C | 63% | 1027.8 hPa | 0 mm | - | - | - |
| 1778134232 | 14.44° C | 63% | 1027.7 hPa | 0 mm | - | - | - |
| 1778133929 | 15° C | 58% | 1027.4 hPa | 0 mm | - | - | - |
| 1778133626 | 15° C | 57% | 1027.6 hPa | 0 mm | - | - | - |
| 1778133326 | 15° C | 56% | 1027.7 hPa | 0 mm | - | - | - |
| 1778133022 | 15° C | 58% | 1027.8 hPa | 0 mm | - | - | - |
| 1778132719 | 15° C | 57% | 1027.7 hPa | 0 mm | - | - | - |
| 1778132416 | 15.56° C | 56% | 1027.8 hPa | 0 mm | - | - | - |
* Rain latest hour (hover to see other rain measurements)
** Current wind speed in m/s (hover to see current wind gust speed)